Weather History for KHRX - January, 2012

Change the Weather History Date:

Friday, January 13, 2012

  Actual Average (KAMA) Record (KAMA)
Temperature  
Mean Temperature 36 °F 37 °F  
Max Temperature 55 °F 50 °F 75 °F (1957)
Min Temperature 17 °F 23 °F -8 °F (1963)
Degree Days  
Heating Degree Days 29 28  
Month to date heating degree days 370  
Since 1 July heating degree days 2087  
Cooling Degree Days 0 0  
Month to date cooling degree days 0  
Year to date cooling degree days 0  
Moisture  
Dew Point 11 °F    
Average Humidity 46    
Maximum Humidity 80    
Minimum Humidity 10    
Precipitation  
Precipitation 0.00 in 0.02 in 0.34 in (1960)
Month to date precipitation 0.25  
Year to date precipitation 0.25  
Snow  
Snow 0.00 in 0.10 in 1.00 in (1992)
Month to date snowfall 1.5  
Since 1 July snowfall 7.9  
Snow Depth -    
Sea Level Pressure  
Sea Level Pressure 30.14 in    
Wind  
Wind Speed 7 mph (West)    
Max Wind Speed 15 mph    
Max Gust Speed 20 mph    
Visibility 10 miles    
Events      
T = Trace of Precipitation, MM = Missing Value Source: NWS Daily Summary

Daily Weather History Graph

Daily Weather History Graph

Search for Another Location

Airport or City:

Trip Planner

Search our weather history database for the weather conditions in past years. The results will help you decide how hot, cold, wet, or windy it might be!

Date:

Astronomy

Jan. 13, 2012 Rise Set
Actual Time 7:57 AM CST 5:59 PM CST
Civil Twilight 7:29 AM CST 6:26 PM CST
Nautical Twilight 6:58 AM CST 6:57 PM CST
Astronomical Twilight 6:27 AM CST 7:28 PM CST
Moon 10:59 PM CST (1/13) 10:25 AM CST (1/13)
Length of Visible Light 10h 57m
Length of Day
10h 01m
Waning Gibbous, 78% of the Moon is Illuminated
Jan 13
Waning Gibbous
Jan 16
Last Quarter
Jan 23
New
Jan 30
First Quarter
Feb 7
Full

Hourly Weather History & Observations

Time (CST) Temp. Windchill Dew Point Humidity Pressure Visibility Wind Dir Wind Speed Gust Speed Precip Events Conditions
12:15 AM 30.2 °F 23.4 °F 15.8 °F 55% 30.13 in 10.0 mi West 6.9 mph - N/A   Clear
12:35 AM 28.4 °F 22.2 °F 15.8 °F 59% 30.13 in 10.0 mi West 5.8 mph - N/A   Clear
12:55 AM 28.4 °F 21.2 °F 15.8 °F 59% 30.13 in 10.0 mi West 6.9 mph - N/A   Clear
1:15 AM 28.4 °F 23.3 °F 17.6 °F 64% 30.14 in 10.0 mi West 4.6 mph - N/A   Clear
1:35 AM 28.4 °F 22.2 °F 17.6 °F 64% 30.14 in 10.0 mi West 5.8 mph - N/A   Clear
1:55 AM 26.6 °F 20.0 °F 15.8 °F 64% 30.14 in 10.0 mi West 5.8 mph - N/A   Clear
2:15 AM 26.6 °F 19.1 °F 14.0 °F 59% 30.14 in 10.0 mi West 6.9 mph - N/A   Clear
2:35 AM 26.6 °F 21.2 °F 15.8 °F 64% 30.15 in 10.0 mi WSW 4.6 mph - N/A   Clear
2:55 AM 23.0 °F 15.8 °F 14.0 °F 68% 30.16 in 10.0 mi WSW 5.8 mph - N/A   Clear
3:15 AM 26.6 °F 20.0 °F 17.6 °F 69% 30.15 in 10.0 mi WSW 5.8 mph - N/A   Clear
3:35 AM 21.2 °F 16.4 °F 12.2 °F 68% 30.16 in 10.0 mi West 3.5 mph - N/A   Clear
3:55 AM 21.2 °F - 12.2 °F 68% 30.14 in 10.0 mi Calm Calm - N/A   Clear
4:15 AM 23.0 °F 15.8 °F 14.0 °F 68% 30.14 in 10.0 mi WSW 5.8 mph - N/A   Clear
4:35 AM 21.2 °F 13.6 °F 14.0 °F 74% 30.14 in 10.0 mi WSW 5.8 mph - N/A   Clear
4:55 AM 21.2 °F 12.6 °F 14.0 °F 74% 30.14 in 10.0 mi West 6.9 mph - N/A   Clear
5:15 AM 19.4 °F 10.4 °F 12.2 °F 74% 30.14 in 10.0 mi WNW 6.9 mph - N/A   Clear
5:35 AM 17.6 °F 10.7 °F 10.4 °F 73% 30.14 in 10.0 mi WNW 4.6 mph - N/A   Clear
5:55 AM 17.6 °F 9.3 °F 12.2 °F 79% 30.15 in 10.0 mi WSW 5.8 mph - N/A   Clear
6:15 AM 19.4 °F 12.8 °F 14.0 °F 80% 30.15 in 10.0 mi SSW 4.6 mph - N/A   Clear
6:35 AM 23.0 °F 18.4 °F 15.8 °F 74% 30.16 in 10.0 mi WSW 3.5 mph - N/A   Clear
6:55 AM 23.0 °F 15.8 °F 15.8 °F 74% 30.16 in 10.0 mi West 5.8 mph - N/A   Clear
7:15 AM 23.0 °F 15.8 °F 15.8 °F 74% 30.16 in 10.0 mi West 5.8 mph - N/A   Clear
7:35 AM 17.6 °F - 12.2 °F 79% 30.16 in 10.0 mi Calm Calm - N/A   Clear
8:15 AM 19.4 °F 10.4 °F 14.0 °F 80% 30.17 in 10.0 mi West 6.9 mph - N/A   Clear
8:35 AM 19.4 °F 14.3 °F 14.0 °F 80% 30.17 in 10.0 mi West 3.5 mph - N/A   Clear
8:55 AM 23.0 °F 15.8 °F 17.6 °F 80% 30.17 in 10.0 mi West 5.8 mph - N/A   Clear
9:15 AM 26.6 °F 17.5 °F 19.4 °F 74% 30.17 in 10.0 mi West 9.2 mph - N/A   Clear
9:35 AM 30.2 °F 20.8 °F 19.4 °F 64% 30.18 in 10.0 mi WNW 11.5 mph - N/A   Clear
9:55 AM 32.0 °F 22.1 °F 21.2 °F 64% 30.18 in 10.0 mi WNW 13.8 mph - N/A   Clear
10:35 AM 37.4 °F 29.3 °F 19.4 °F 48% 30.19 in 10.0 mi WNW 12.7 mph - N/A   Clear
10:55 AM 39.2 °F 31.2 °F 17.6 °F 42% 30.18 in 10.0 mi WNW 13.8 mph 17.3 mph N/A   Clear
11:15 AM 42.8 °F 36.2 °F 17.6 °F 36% 30.18 in 10.0 mi NW 12.7 mph - N/A   Clear
11:35 AM 44.6 °F 38.8 °F 17.6 °F 34% 30.17 in 10.0 mi WNW 11.5 mph - N/A   Clear
11:55 AM 46.4 °F 41.5 °F 17.6 °F 32% 30.16 in 10.0 mi WNW 10.4 mph - N/A   Clear
12:15 PM 48.2 °F - 14.0 °F 25% 30.15 in 10.0 mi WNW 11.5 mph - N/A   Clear
12:35 PM 50.0 °F - 10.4 °F 20% 30.13 in 10.0 mi WNW 9.2 mph - N/A   Clear
12:55 PM 50.0 °F - 8.6 °F 19% 30.13 in 10.0 mi WNW 12.7 mph - N/A   Clear
1:15 PM 51.8 °F - 8.6 °F 18% 30.12 in 10.0 mi WNW 13.8 mph - N/A   Clear
1:35 PM 51.8 °F - 6.8 °F 16% 30.11 in 10.0 mi West 13.8 mph 19.6 mph N/A   Clear
1:55 PM 51.8 °F - 5.0 °F 15% 30.10 in 10.0 mi WNW 15.0 mph - N/A   Clear
2:15 PM 53.6 °F - 5.0 °F 14% 30.09 in 10.0 mi West 10.4 mph 17.3 mph N/A   Clear
2:55 PM 55.4 °F - 3.2 °F 12% 30.09 in 10.0 mi West 10.4 mph 16.1 mph N/A   Clear
3:15 PM 55.4 °F - 3.2 °F 12% 30.09 in 10.0 mi West 12.7 mph 18.4 mph N/A   Clear
3:35 PM 55.4 °F - 1.4 °F 11% 30.09 in 10.0 mi WNW 13.8 mph 17.3 mph N/A   Clear
3:55 PM 55.4 °F - 1.4 °F 11% 30.09 in 10.0 mi WNW 9.2 mph - N/A   Clear
4:15 PM 55.4 °F - -0.4 °F 10% 30.09 in 10.0 mi WNW 8.1 mph - N/A   Clear
4:35 PM 55.4 °F - 1.4 °F 11% 30.10 in 10.0 mi West 9.2 mph - N/A   Clear
4:55 PM 55.4 °F - 1.4 °F 11% 30.10 in 10.0 mi West 9.2 mph - N/A   Clear
5:15 PM 53.6 °F - 1.4 °F 12% 30.10 in 10.0 mi West 8.1 mph - N/A   Clear
5:35 PM 51.8 °F - 1.4 °F 13% 30.11 in 10.0 mi West 4.6 mph - N/A   Clear
5:55 PM 50.0 °F - 6.8 °F 17% 30.11 in 10.0 mi WSW 3.5 mph - N/A   Clear
6:35 PM 44.6 °F 41.4 °F 5.0 °F 20% 30.13 in 10.0 mi SSW 5.8 mph - N/A   Clear
6:55 PM 39.2 °F 33.6 °F 5.0 °F 24% 30.12 in 10.0 mi SSW 8.1 mph - N/A   Clear
7:15 PM 37.4 °F 31.4 °F 6.8 °F 28% 30.13 in 10.0 mi SSW 8.1 mph - N/A   Clear
7:35 PM 35.6 °F 29.9 °F 8.6 °F 33% 30.13 in 10.0 mi SSW 6.9 mph - N/A   Clear
7:55 PM 33.8 °F 27.7 °F 8.6 °F 35% 30.13 in 10.0 mi SW 6.9 mph - N/A   Clear
8:15 PM 35.6 °F 28.6 °F 8.6 °F 33% 30.14 in 10.0 mi SW 9.2 mph - N/A   Clear
8:35 PM 35.6 °F 29.2 °F 8.6 °F 33% 30.14 in 10.0 mi SW 8.1 mph - N/A   Clear
9:15 PM 33.8 °F 26.4 °F 8.6 °F 35% 30.14 in 10.0 mi SW 9.2 mph - N/A   Clear
9:55 PM 35.6 °F 28.6 °F 8.6 °F 33% 30.14 in 10.0 mi SW 9.2 mph - N/A   Clear
10:35 PM 32.0 °F 23.0 °F 8.6 °F 38% 30.16 in 10.0 mi WSW 11.5 mph - N/A   Clear
10:55 PM 32.0 °F 23.0 °F 8.6 °F 38% 30.16 in 10.0 mi West 11.5 mph - N/A   Clear
11:35 PM 30.2 °F 20.2 °F 8.6 °F 40% 30.18 in 10.0 mi West 12.7 mph - N/A   Clear
11:55 PM 28.4 °F 19.1 °F 8.6 °F 43% 30.18 in 10.0 mi West 10.4 mph - N/A   Clear